Regional Weather Roundup
Issued by NWS Charleston, WV

Home | Current Version | Previous Version | Text Only | Print | Product List | Glossary Off
Versions: 1 2 3 4 5 6 7 8 9 10 11 12 13 14 15 16 17 18 19 20 21 22 23 24 25 26 27 28 29 30 31 32 33 34 35 36 37 38 39 40 41 42 43 44 45 46 47 48 49 50

000
ASUS41 KRLX 231910
RWRRLX
West Virginia Regional Weather Roundup
National Weather Service Charleston WV
200 PM EST SUN NOV 23 2014

Note: "fair" indicates few or no clouds below 12,000 feet with no
significant weather and/or obstructions to visibility.

WVZ003-232000-
Northern Panhandle of West Virginia

CITY           SKY/WX    TMP DP  RH WIND       PRES   REMARKS
WHEELING       CLOUDY    65  44  46 SE9       29.91F
$$

WVZ009-232000-
Northwest West Virginia

CITY           SKY/WX    TMP DP  RH WIND       PRES   REMARKS
PARKERSBURG    PTSUNNY   66  39  37 SE12      29.90F
$$

WVZ006-232000-
Western West Virginia

CITY           SKY/WX    TMP DP  RH WIND       PRES   REMARKS
HUNTINGTON     PTSUNNY   65  42  43 S8        29.83F
$$

WVZ015-232000-
West Central West Virginia

CITY           SKY/WX    TMP DP  RH WIND       PRES   REMARKS
CHARLESTON     CLOUDY    62  41  46 SE10      29.88F
$$

WVZ022-031-232000-
North Central West Virginia

CITY           SKY/WX    TMP DP  RH WIND       PRES   REMARKS
CLARKSBURG     CLOUDY    65  44  46 SE9       29.92F
MORGANTOWN     PTSUNNY   64  44  48 SE9       29.95F
$$

WVZ025-035-042-045-232000-
Southern West Virginia

CITY           SKY/WX    TMP DP  RH WIND       PRES   REMARKS
BECKLEY        CLOUDY    51  39  63 SE12G22   29.97F
LOGAN          MOCLDY    61  45  55 SE12G18   29.88F
BLUEFIELD      CLOUDY    52  43  71 VRB6G25   29.97F
LEWISBURG      CLOUDY    47  31  54 NE3       30.03F
$$

WVZ047-232000-
Northern Mountains of West Virginia

CITY           SKY/WX    TMP DP  RH WIND       PRES   REMARKS
ELKINS         CLOUDY    57  40  52 S10G17    29.99F
$$

WVZ052-232000-
Eastern Panhandle of West Virginia

CITY           SKY/WX    TMP DP  RH WIND       PRES   REMARKS
MARTINSBURG    PTSUNNY   57  24  28 SE7       30.07F
PETERSBURG     MOSUNNY   62  36  37 S10G16    30.02F
$$



USA.gov is the U.S. government's official web portal to all federal, state and local government web resources and services.